,,PA_Meas_PMT16A,,PR_Meas_QMR101_102,,RH_Meas_QMH101,,SR_Meas_QMS101,,TA_Meas_QMH101,,GenWind,,GenWind,
time,status,PA,status,PR,status,RH,status,SR,status,TA,status,DirAvg,status,SpdAvg,
2014-02-11, 00:00:04,VALID,916.741,VALID,0,VALID,91.0846,VALID,0.107441,VALID,19.3323,VALID,112,VALID,0,
2014-02-11, 00:01:04,VALID,916.748,VALID,0,VALID,90.9245,VALID,0,VALID,19.3518,VALID,113,VALID,0.00078125,
2014-02-11, 00:02:04,VALID,916.757,VALID,0,VALID,90.7873,VALID,0,VALID,19.3713,VALID,113,VALID,0.477344,
2014-02-11, 00:03:04,VALID,916.77,VALID,0,VALID,90.7415,VALID,0,VALID,19.3323,VALID,122,VALID,0.726953,
2014-02-11, 00:04:04,VALID,916.761,VALID,0,VALID,90.5662,VALID,0,VALID,19.2933,VALID,122,VALID,0.935156,
2014-02-11, 00:05:04,VALID,916.731,VALID,0,VALID,90.5128,VALID,0,VALID,19.2738,VALID,122,VALID,0.95625,
2014-02-11, 00:06:04,VALID,916.738,VALID,0,VALID,90.4976,VALID,0.107441,VALID,19.2738,VALID,122,VALID,0.969141,
2014-02-11, 00:07:04,VALID,916.741,VALID,0,VALID,90.4518,VALID,0,VALID,19.2543,VALID,122,VALID,0.704297,
2014-02-11, 00:08:04,VALID,916.721,VALID,0,VALID,90.4595,VALID,0,VALID,19.2348,VALID,122,VALID,0.80625,
2014-02-11, 00:09:04,VALID,916.707,VALID,0,VALID,90.429,VALID,0.107441,VALID,19.2543,VALID,122,VALID,0.257422,
2014-02-11, 00:10:04,VALID,916.685,VALID,0,VALID,90.2308,VALID,0,VALID,19.2153,VALID,122,VALID,0.678906,
2014-02-11, 00:11:04,VALID,916.701,VALID,0,VALID,90.1774,VALID,0,VALID,19.1958,VALID,122,VALID,0.798828,
2014-02-11, 00:12:04,VALID,916.71,VALID,0,VALID,90.1469,VALID,0,VALID,19.1568,VALID,122,VALID,0.788672,
2014-02-11, 00:13:04,VALID,916.705,VALID,0,VALID,90.1469,VALID,0,VALID,19.1373,VALID,122,VALID,0.898438,
2014-02-11, 00:14:04,VALID,916.692,VALID,0,VALID,90.2079,VALID,0,VALID,19.1373,VALID,122,VALID,0.566797,
2014-02-11, 00:15:04,VALID,916.697,VALID,0,VALID,90.3451,VALID,0,VALID,19.1373,VALID,122,VALID,0.661719,
2014-02-11, 00:16:04,VALID,916.681,VALID,0,VALID,90.4595,VALID,0,VALID,19.1178,VALID,122,VALID,0.700391,
2014-02-11, 00:17:04,VALID,916.685,VALID,0,VALID,90.5281,VALID,0,VALID,19.1178,VALID,122,VALID,0.703906,
2014-02-11, 00:18:04,VALID,916.684,VALID,0,VALID,90.5509,VALID,0,VALID,19.0983,VALID,122,VALID,0.737891,
2014-02-11, 00:19:04,VALID,916.691,VALID,0,VALID,90.5814,VALID,0,VALID,19.0788,VALID,122,VALID,0.835156,
2014-02-11, 00:20:04,VALID,916.67,VALID,0,VALID,90.6272,VALID,0,VALID,19.0593,VALID,122,VALID,0.873438,
2014-02-11, 00:21:04,VALID,916.67,VALID,0,VALID,90.7415,VALID,0,VALID,19.0803,VALID,122,VALID,0.903125,
2014-02-11, 00:22:04,VALID,916.642,VALID,0,VALID,90.772,VALID,0,VALID,19.0788,VALID,122,VALID,0.882031,
2014-02-11, 00:23:04,VALID,916.649,VALID,0,VALID,90.7034,VALID,0,VALID,19.0983,VALID,122,VALID,0.705078,
2014-02-11, 00:24:04,VALID,916.657,VALID,0,VALID,90.4976,VALID,0,VALID,19.1178,VALID,122,VALID,0.626172,
2014-02-11, 00:25:04,VALID,916.609,VALID,0,VALID,90.3299,VALID,0,VALID,19.1178,VALID,122,VALID,0.904297,
2014-02-11, 00:26:04,VALID,916.625,VALID,0,VALID,90.1698,VALID,0,VALID,19.1164,VALID,122,VALID,0.888281,
2014-02-11, 00:27:04,VALID,916.633,VALID,0,VALID,90.0935,VALID,0,VALID,19.1373,VALID,122,VALID,0.509375,
2014-02-11, 00:28:04,VALID,916.611,VALID,0,VALID,89.842,VALID,0.107441,VALID,19.1568,VALID,127,VALID,0.784375,
2014-02-11, 00:29:04,VALID,916.601,VALID,0,VALID,89.5904,VALID,0.107441,VALID,19.1568,VALID,128,VALID,0.652344,
2014-02-11, 00:30:04,VALID,916.577,VALID,0,VALID,89.4532,VALID,0,VALID,19.1763,VALID,128,VALID,0.589844,
2014-02-11, 00:31:04,VALID,916.589,VALID,0,VALID,89.3617,VALID,0,VALID,19.1763,VALID,128,VALID,0.917969,
2014-02-11, 00:32:04,VALID,916.619,VALID,0,VALID,89.3693,VALID,0,VALID,19.1763,VALID,135,VALID,1.42305,
2014-02-11, 00:33:04,VALID,916.586,VALID,0,VALID,89.5142,VALID,0,VALID,19.2153,VALID,136,VALID,1.10859,
2014-02-11, 00:34:04,VALID,916.579,VALID,0,VALID,89.781,VALID,0.107441,VALID,19.2348,VALID,143,VALID,0.887109,
2014-02-11, 00:35:04,VALID,916.594,VALID,0,VALID,89.9868,VALID,0,VALID,19.2543,VALID,143,VALID,0.688281,
2014-02-11, 00:36:04,VALID,916.545,VALID,0,VALID,90.0783,VALID,0,VALID,19.2543,VALID,147,VALID,1.22695,
2014-02-11, 00:37:04,VALID,916.518,VALID,0,VALID,89.9944,VALID,0,VALID,19.2543,VALID,142,VALID,1.30469,
2014-02-11, 00:38:04,VALID,916.512,VALID,0,VALID,89.8496,VALID,0,VALID,19.2543,VALID,133,VALID,1.16328,
2014-02-11, 00:39:04,VALID,916.49,VALID,0,VALID,89.9792,VALID,0,VALID,19.2738,VALID,138,VALID,0.795313,
2014-02-11, 00:40:04,VALID,916.475,VALID,0,VALID,89.6666,VALID,0.107441,VALID,19.2543,VALID,136,VALID,1.18906,
2014-02-11, 00:41:04,VALID,916.449,VALID,0,VALID,89.4227,VALID,0.107441,VALID,19.3143,VALID,134,VALID,1.20078,
2014-02-11, 00:42:04,VALID,916.429,VALID,0,VALID,89.4303,VALID,0,VALID,19.3128,VALID,132,VALID,0.966797,
2014-02-11, 00:43:04,VALID,916.398,VALID,0,VALID,89.5599,VALID,0,VALID,19.3323,VALID,131,VALID,0.938672,
2014-02-11, 00:44:04,VALID,916.37,VALID,0,VALID,89.5446,VALID,0.107441,VALID,19.3323,VALID,132,VALID,0.606641,
2014-02-11, 00:45:04,VALID,916.384,VALID,0,VALID,89.6742,VALID,0.107441,VALID,19.3128,VALID,134,VALID,0.360156,
2014-02-11, 00:46:04,VALID,916.378,VALID,0,VALID,89.6056,VALID,0,VALID,19.3323,VALID,136,VALID,0.446094,
2014-02-11, 00:47:04,VALID,916.394,VALID,0,VALID,89.4379,VALID,0,VALID,19.3323,VALID,146,VALID,0.830859,
2014-02-11, 00:48:04,VALID,916.387,VALID,0,VALID,89.3998,VALID,0,VALID,19.3533,VALID,140,VALID,0.896484,
2014-02-11, 00:49:04,VALID,916.378,VALID,0,VALID,89.4074,VALID,0,VALID,19.3518,VALID,140,VALID,0.626562,
2014-02-11, 00:50:04,VALID,916.393,VALID,0,VALID,89.4303,VALID,0,VALID,19.3728,VALID,139,VALID,0.836719,
2014-02-11, 00:51:04,VALID,916.383,VALID,0,VALID,89.3083,VALID,0,VALID,19.3518,VALID,139,VALID,0.726953,
2014-02-11, 00:52:04,VALID,916.387,VALID,0,VALID,89.1559,VALID,0,VALID,19.3323,VALID,139,VALID,0.733594,
2014-02-11, 00:53:04,VALID,916.38,VALID,0,VALID,89.2931,VALID,0,VALID,19.2948,VALID,139,VALID,0.703125,
2014-02-11, 00:54:04,VALID,916.34,VALID,0,VALID,89.6361,VALID,0,VALID,19.2543,VALID,139,VALID,0.8625,
2014-02-11, 00:55:04,VALID,916.325,VALID,0,VALID,89.8038,VALID,0,VALID,19.2543,VALID,139,VALID,1,
2014-02-11, 00:56:04,VALID,916.329,VALID,0,VALID,89.8267,VALID,0,VALID,19.2363,VALID,136,VALID,1.03359,
2014-02-11, 00:57:04,VALID,916.329,VALID,0,VALID,89.9106,VALID,0.107441,VALID,19.2153,VALID,132,VALID,1.23477,
2014-02-11, 00:58:04,VALID,916.298,VALID,0,VALID,89.8648,VALID,0,VALID,19.2153,VALID,133,VALID,1.05938,
2014-02-11, 00:59:04,VALID,916.313,VALID,0,VALID,89.8953,VALID,0.107441,VALID,19.2153,VALID,133,VALID,0.743359,
2014-02-11, 01:00:04,VALID,916.306,VALID,0,VALID,89.8648,VALID,0,VALID,19.1958,VALID,132,VALID,0.953125,
2014-02-11, 01:01:04,VALID,916.312,VALID,0,VALID,89.9334,VALID,0,VALID,19.2168,VALID,132,VALID,0.941406,
2014-02-11, 01:02:04,VALID,916.299,VALID,0,VALID,89.9792,VALID,0.107441,VALID,19.1958,VALID,132,VALID,0.970703,
2014-02-11, 01:03:04,VALID,916.311,VALID,0,VALID,89.1177,VALID,0,VALID,19.1568,VALID,132,VALID,1.24492,
2014-02-11, 01:04:05,VALID,916.28,VALID,0,VALID,88.9729,VALID,0,VALID,19.1958,VALID,132,VALID,1.10703,
2014-02-11, 01:05:05,VALID,916.274,VALID,0,VALID,88.363,VALID,0,VALID,19.1958,VALID,131,VALID,1.26758,
2014-02-11, 01:06:05,VALID,916.219,VALID,0,VALID,87.6998,VALID,0,VALID,19.2363,VALID,129,VALID,1.21914,
2014-02-11, 01:07:05,VALID,916.214,VALID,0,VALID,87.3872,VALID,0,VALID,19.2348,VALID,123,VALID,1.38281,
2014-02-11, 01:08:05,VALID,916.201,VALID,0,VALID,87.3643,VALID,0,VALID,19.1958,VALID,118,VALID,1.14805,
2014-02-11, 01:09:05,VALID,916.209,VALID,0,VALID,87.3415,VALID,0,VALID,19.1373,VALID,115,VALID,1.10156,
2014-02-11, 01:10:05,VALID,916.178,VALID,0,VALID,87.3948,VALID,0,VALID,19.0579,VALID,113,VALID,0.793359,
2014-02-11, 01:11:05,VALID,916.191,VALID,0,VALID,87.4101,VALID,0,VALID,19.0008,VALID,113,VALID,0.588281,
2014-02-11, 01:12:05,VALID,916.182,VALID,0,VALID,87.1738,VALID,0,VALID,18.9633,VALID,115,VALID,0.85,
2014-02-11, 01:13:05,VALID,916.185,VALID,0,VALID,86.7011,VALID,0.107441,VALID,18.9034,VALID,125,VALID,0.835156,
2014-02-11, 01:14:05,VALID,916.173,VALID,0,VALID,86.5639,VALID,0.107441,VALID,18.8629,VALID,125,VALID,0.89375,
2014-02-11, 01:15:05,VALID,916.135,VALID,0,VALID,86.602,VALID,0,VALID,18.8658,VALID,125,VALID,0.818359,
2014-02-11, 01:16:05,VALID,916.096,VALID,0,VALID,86.8612,VALID,0,VALID,18.8254,VALID,125,VALID,0.855859,
2014-02-11, 01:17:05,VALID,916.109,VALID,0,VALID,86.9756,VALID,0,VALID,18.8073,VALID,125,VALID,0.742188,
2014-02-11, 01:18:05,VALID,916.09,VALID,0,VALID,86.9298,VALID,0,VALID,18.7683,VALID,124,VALID,1.02266,
2014-02-11, 01:19:05,VALID,916.065,VALID,0,VALID,86.6477,VALID,0.107441,VALID,18.7488,VALID,124,VALID,1.13437,
2014-02-11, 01:20:05,VALID,916.055,VALID,0,VALID,86.9527,VALID,0,VALID,18.7474,VALID,122,VALID,0.819531,
2014-02-11, 01:21:05,VALID,916.059,VALID,0,VALID,87.0518,VALID,0,VALID,18.6694,VALID,123,VALID,1.06367,
2014-02-11, 01:22:05,VALID,916.037,VALID,0,VALID,87.1204,VALID,0,VALID,18.6499,VALID,127,VALID,1.36016,
2014-02-11, 01:23:05,VALID,916.029,VALID,0,VALID,86.5791,VALID,0,VALID,18.7113,VALID,131,VALID,1.64922,
2014-02-11, 01:24:05,VALID,916.013,VALID,0,VALID,86.2208,VALID,0,VALID,18.7293,VALID,130,VALID,1.40781,
2014-02-11, 01:25:05,VALID,915.994,VALID,0,VALID,86.0989,VALID,0,VALID,18.7293,VALID,131,VALID,0.982813,
2014-02-11, 01:26:05,VALID,915.989,VALID,0,VALID,85.7406,VALID,0,VALID,18.7293,VALID,131,VALID,1.05625,
2014-02-11, 01:27:05,VALID,915.967,VALID,0,VALID,85.5652,VALID,0,VALID,18.7279,VALID,142,VALID,1.22695,
2014-02-11, 01:28:05,VALID,915.958,VALID,0,VALID,85.4966,VALID,0,VALID,18.7488,VALID,139,VALID,0.991016,
2014-02-11, 01:29:05,VALID,915.939,VALID,0,VALID,84.9249,VALID,0,VALID,18.6889,VALID,132,VALID,1.10195,
2014-02-11, 01:30:05,VALID,915.953,VALID,0,VALID,84.193,VALID,0,VALID,18.6889,VALID,128,VALID,1.22734,
2014-02-11, 01:31:05,VALID,915.934,VALID,0,VALID,84.4979,VALID,0,VALID,18.6708,VALID,128,VALID,0.880078,
2014-02-11, 01:32:05,VALID,915.913,VALID,0,VALID,84.1701,VALID,0,VALID,18.6109,VALID,130,VALID,0.817187,
2014-02-11, 01:33:05,VALID,915.883,VALID,0,VALID,83.8804,VALID,0,VALID,18.6513,VALID,130,VALID,1.03867,
2014-02-11, 01:34:05,VALID,915.904,VALID,0,VALID,83.7432,VALID,0,VALID,18.6903,VALID,138,VALID,1.47187,
2014-02-11, 01:35:05,VALID,915.89,VALID,0,VALID,83.7737,VALID,0,VALID,18.7293,VALID,137,VALID,1.01953,
2014-02-11, 01:36:05,VALID,915.901,VALID,0,VALID,84.193,VALID,0,VALID,18.7098,VALID,136,VALID,1.21641,
2014-02-11, 01:37:05,VALID,915.854,VALID,0,VALID,84.6123,VALID,0,VALID,18.6499,VALID,130,VALID,0.915234,
2014-02-11, 01:38:05,VALID,915.889,VALID,0,VALID,84.3074,VALID,0,VALID,18.5914,VALID,130,VALID,1.13594,
2014-02-11, 01:39:05,VALID,915.876,VALID,0,VALID,84.3836,VALID,0,VALID,18.572,VALID,130,VALID,1.19961,
2014-02-11, 01:40:05,VALID,915.862,VALID,0,VALID,84.4827,VALID,0,VALID,18.5734,VALID,130,VALID,1.21055,
2014-02-11, 01:41:05,VALID,915.848,VALID,0,VALID,84.4979,VALID,0,VALID,18.5748,VALID,130,VALID,1.01133,
2014-02-11, 01:42:05,VALID,915.854,VALID,0,VALID,84.3912,VALID,0,VALID,18.5316,VALID,131,VALID,1.41016,
2014-02-11, 01:43:05,VALID,915.857,VALID,0,VALID,84.3531,VALID,0,VALID,18.5734,VALID,131,VALID,1.20234,
2014-02-11, 01:44:05,VALID,915.823,VALID,0,VALID,84.4979,VALID,0,VALID,18.5344,VALID,131,VALID,1.0293,
2014-02-11, 01:45:05,VALID,915.842,VALID,0,VALID,84.7571,VALID,0,VALID,18.4954,VALID,131,VALID,0.915625,
2014-02-11, 01:46:05,VALID,915.823,VALID,0,VALID,84.9706,VALID,0,VALID,18.4564,VALID,131,VALID,0.890625,
2014-02-11, 01:47:05,VALID,915.845,VALID,0,VALID,84.7571,VALID,0,VALID,18.377,VALID,132,VALID,1.2125,
2014-02-11, 01:48:05,VALID,915.856,VALID,0,VALID,85.1383,VALID,0,VALID,18.3589,VALID,132,VALID,0.932813,
2014-02-11, 01:49:05,VALID,915.86,VALID,0,VALID,85.1002,VALID,0,VALID,18.3199,VALID,131,VALID,1.09336,
2014-02-11, 01:50:05,VALID,915.837,VALID,0,VALID,85.0621,VALID,0,VALID,18.2601,VALID,131,VALID,1.0293,
2014-02-11, 01:51:05,VALID,915.827,VALID,0,VALID,84.658,VALID,0,VALID,18.2406,VALID,131,VALID,0.902734,
2014-02-11, 01:52:05,VALID,915.842,VALID,0,VALID,85.1307,VALID,0,VALID,18.2809,VALID,131,VALID,0.348437,
2014-02-11, 01:53:05,VALID,915.808,VALID,0,VALID,84.9401,VALID,0,VALID,18.3004,VALID,132,VALID,0.463281,
2014-02-11, 01:54:05,VALID,915.801,VALID,0,VALID,84.8562,VALID,0,VALID,18.2796,VALID,132,VALID,0.857031,
2014-02-11, 01:55:05,VALID,915.759,VALID,0,VALID,85.2145,VALID,0,VALID,18.2796,VALID,132,VALID,0.853125,
2014-02-11, 01:56:05,VALID,915.762,VALID,0,VALID,86.2132,VALID,0,VALID,18.3004,VALID,132,VALID,0.789453,
2014-02-11, 01:57:05,VALID,915.749,VALID,0,VALID,88.5307,VALID,0,VALID,18.3199,VALID,132,VALID,0.713281,
2014-02-11, 01:58:05,VALID,915.718,VALID,0,VALID,89.598,VALID,0,VALID,18.2796,VALID,132,VALID,0.86875,
2014-02-11, 01:59:05,VALID,915.707,VALID,0,VALID,90.1012,VALID,0,VALID,18.2406,VALID,137,VALID,0.712891,
2014-02-11, 02:00:05,VALID,915.708,VALID,0,VALID,90.2689,VALID,0,VALID,18.2628,VALID,138,VALID,0.667188,
2014-02-11, 02:01:05,VALID,915.688,VALID,0,VALID,90.1774,VALID,0,VALID,18.2225,VALID,138,VALID,0.751172,
2014-02-11, 02:02:05,VALID,915.666,VALID,0,VALID,89.9868,VALID,0,VALID,18.2225,VALID,138,VALID,0.945313,
2014-02-11, 02:03:05,VALID,915.671,VALID,0,VALID,89.0567,VALID,0,VALID,18.1821,VALID,138,VALID,0.812891,
2014-02-11, 02:04:05,VALID,915.681,VALID,0,VALID,88.2792,VALID,0,VALID,18.2225,VALID,138,VALID,0.643359,
2014-02-11, 02:05:05,VALID,915.666,VALID,0,VALID,87.4863,VALID,0,VALID,18.2225,VALID,138,VALID,0.633203,
2014-02-11, 02:06:05,VALID,915.643,VALID,0,VALID,85.5728,VALID,0,VALID,18.2211,VALID,138,VALID,0.631641,
2014-02-11, 02:07:05,VALID,915.62,VALID,0,VALID,84.071,VALID,0,VALID,18.2406,VALID,138,VALID,0.678516,
2014-02-11, 02:08:05,VALID,915.589,VALID,0,VALID,82.2795,VALID,0,VALID,18.3394,VALID,138,VALID,0.910937,
2014-02-11, 02:09:05,VALID,915.586,VALID,0,VALID,80.9378,VALID,0,VALID,18.3784,VALID,138,VALID,0.870703,
2014-02-11, 02:10:05,VALID,915.563,VALID,0,VALID,80.5948,VALID,0,VALID,18.4174,VALID,137,VALID,0.944531,
2014-02-11, 02:11:05,VALID,915.521,VALID,0,VALID,80.2746,VALID,0,VALID,18.4174,VALID,134,VALID,0.919141,
2014-02-11, 02:12:05,VALID,915.523,VALID,0,VALID,79.1006,VALID,0,VALID,18.3993,VALID,134,VALID,1.22344,
2014-02-11, 02:13:05,VALID,915.509,VALID,0,VALID,78.8871,VALID,0,VALID,18.3784,VALID,134,VALID,0.901172,
2014-02-11, 02:14:05,VALID,915.484,VALID,0,VALID,78.6737,VALID,0,VALID,18.3199,VALID,131,VALID,1.075,
2014-02-11, 02:15:05,VALID,915.488,VALID,0,VALID,79.0167,VALID,0,VALID,18.2809,VALID,129,VALID,1.17656,
2014-02-11, 02:16:05,VALID,915.492,VALID,0,VALID,81.4257,VALID,0,VALID,18.2433,VALID,129,VALID,1.26563,
2014-02-11, 02:17:05,VALID,915.46,VALID,0,VALID,83.4764,VALID,0,VALID,18.2044,VALID,129,VALID,1.14219,
2014-02-11, 02:18:05,VALID,915.467,VALID,0,VALID,85.771,VALID,0,VALID,18.1055,VALID,129,VALID,0.927734,
2014-02-11, 02:19:05,VALID,915.446,VALID,0,VALID,86.8993,VALID,0,VALID,17.9899,VALID,123,VALID,0.962891,
2014-02-11, 02:20:05,VALID,915.489,VALID,0,VALID,88.3249,VALID,0,VALID,17.8326,VALID,123,VALID,1.02656,
2014-02-11, 02:21:05,VALID,915.462,VALID,0,VALID,90.1088,VALID,0,VALID,17.7352,VALID,126,VALID,0.980859,
2014-02-11, 02:22:05,VALID,915.46,VALID,0,VALID,91.0236,VALID,0,VALID,17.6182,VALID,125,VALID,1.08633,
2014-02-11, 02:23:05,VALID,915.447,VALID,0,VALID,92.0832,VALID,0,VALID,17.5598,VALID,124,VALID,1.30391,
2014-02-11, 02:24:05,VALID,915.467,VALID,0,VALID,92.5559,VALID,0,VALID,17.4818,VALID,119,VALID,1.16211,
2014-02-11, 02:25:05,VALID,915.456,VALID,0,VALID,92.8837,VALID,0,VALID,17.3844,VALID,114,VALID,0.99375,
2014-02-11, 02:26:05,VALID,915.449,VALID,0,VALID,93.2572,VALID,0,VALID,17.3064,VALID,114,VALID,1.16523,
2014-02-11, 02:27:05,VALID,915.429,VALID,0,VALID,93.6232,VALID,0,VALID,17.2674,VALID,114,VALID,1.12344,
2014-02-11, 02:28:05,VALID,915.449,VALID,0,VALID,93.9815,VALID,0,VALID,17.2285,VALID,114,VALID,1.24727,
2014-02-11, 02:29:05,VALID,915.442,VALID,0,VALID,94.3093,VALID,0,VALID,17.2285,VALID,114,VALID,1.09023,
2014-02-11, 02:30:05,VALID,915.432,VALID,0,VALID,94.4389,VALID,0,VALID,17.2285,VALID,112,VALID,1.51563,
2014-02-11, 02:31:05,VALID,915.428,VALID,0,VALID,94.5456,VALID,0,VALID,17.2285,VALID,109,VALID,1.49375,
2014-02-11, 02:32:05,VALID,915.458,VALID,0,VALID,94.416,VALID,0,VALID,17.2687,VALID,106,VALID,1.19062,
2014-02-11, 02:33:05,VALID,915.425,VALID,0,VALID,94.0043,VALID,0,VALID,17.2687,VALID,107,VALID,1.25898,
2014-02-11, 02:34:05,VALID,915.409,VALID,0,VALID,93.0362,VALID,0,VALID,17.2479,VALID,107,VALID,1.10781,
2014-02-11, 02:35:05,VALID,915.418,VALID,0,VALID,92.4568,VALID,0,VALID,17.2479,VALID,115,VALID,1.28633,
2014-02-11, 02:36:05,VALID,915.438,VALID,0,VALID,91.8164,VALID,0,VALID,17.2479,VALID,115,VALID,0.985547,
2014-02-11, 02:37:05,VALID,915.422,VALID,0,VALID,91.1684,VALID,0,VALID,17.2479,VALID,114,VALID,1.13437,
2014-02-11, 02:38:05,VALID,915.414,VALID,0,VALID,90.5509,VALID,0,VALID,17.2674,VALID,114,VALID,1.14336,
2014-02-11, 02:39:05,VALID,915.374,VALID,0,VALID,90.0021,VALID,0,VALID,17.2869,VALID,119,VALID,1.09258,
2014-02-11, 02:40:05,VALID,915.394,VALID,0,VALID,89.4074,VALID,0,VALID,17.3272,VALID,126,VALID,1.25117,
2014-02-11, 02:41:05,VALID,915.358,VALID,0,VALID,89.1406,VALID,0,VALID,17.3454,VALID,126,VALID,1.07969,
2014-02-11, 02:42:05,VALID,915.323,VALID,0,VALID,88.8509,VALID,0,VALID,17.3662,VALID,126,VALID,0.946875,
2014-02-11, 02:43:05,VALID,915.31,VALID,0,VALID,88.5917,VALID,0,VALID,17.3844,VALID,126,VALID,1.16836,
2014-02-11, 02:44:05,VALID,915.286,VALID,0,VALID,87.7455,VALID,0,VALID,17.4428,VALID,126,VALID,1.21211,
2014-02-11, 02:45:05,VALID,915.267,VALID,0,VALID,86.6706,VALID,0,VALID,17.5416,VALID,127,VALID,1.14258,
2014-02-11, 02:46:05,VALID,915.264,VALID,0,VALID,85.5805,VALID,0,VALID,17.6196,VALID,127,VALID,1.08008,
2014-02-11, 02:47:05,VALID,915.282,VALID,0,VALID,85.8702,VALID,0,VALID,17.6572,VALID,127,VALID,0.930469,
2014-02-11, 02:48:05,VALID,915.262,VALID,0,VALID,85.6643,VALID,0,VALID,17.6767,VALID,127,VALID,0.742578,
2014-02-11, 02:49:05,VALID,915.265,VALID,0,VALID,86.541,VALID,0,VALID,17.6962,VALID,127,VALID,0.725781,
2014-02-11, 02:50:05,VALID,915.243,VALID,0,VALID,87.25,VALID,0,VALID,17.6585,VALID,128,VALID,0.941406,
2014-02-11, 02:51:05,VALID,915.255,VALID,0,VALID,87.3872,VALID,0,VALID,17.5598,VALID,127,VALID,0.991406,
2014-02-11, 02:52:05,VALID,915.245,VALID,0,VALID,87.6235,VALID,0,VALID,17.5208,VALID,127,VALID,1.19648,
2014-02-11, 02:53:05,VALID,915.251,VALID,0,VALID,85.9311,VALID,0,VALID,17.5208,VALID,128,VALID,1.3332,
2014-02-11, 02:54:05,VALID,915.261,VALID,0,VALID,84.8258,VALID,0,VALID,17.6196,VALID,128,VALID,1.43711,
2014-02-11, 02:55:05,VALID,915.258,VALID,0,VALID,84.6733,VALID,0,VALID,17.6767,VALID,137,VALID,1.27813,
2014-02-11, 02:56:05,VALID,915.261,VALID,0,VALID,84.5208,VALID,0,VALID,17.6975,VALID,137,VALID,1.15234,
2014-02-11, 02:57:05,VALID,915.238,VALID,0,VALID,84.5513,VALID,0,VALID,17.6975,VALID,137,VALID,0.828906,
2014-02-11, 02:58:05,VALID,915.241,VALID,0,VALID,84.132,VALID,0,VALID,17.6391,VALID,137,VALID,1.09766,
2014-02-11, 02:59:05,VALID,915.253,VALID,0,VALID,84.2616,VALID,0,VALID,17.6404,VALID,129,VALID,0.941797,
2014-02-11, 03:00:05,VALID,915.217,VALID,0,VALID,84.597,VALID,0,VALID,17.5416,VALID,125,VALID,1.10781,
2014-02-11, 03:01:05,VALID,915.189,VALID,0,VALID,84.78,VALID,0,VALID,17.4623,VALID,119,VALID,1.21523,
2014-02-11, 03:02:05,VALID,915.18,VALID,0,VALID,85.0621,VALID,0,VALID,17.4247,VALID,118,VALID,1.02695,
2014-02-11, 03:03:05,VALID,915.155,VALID,0,VALID,85.1612,VALID,0,VALID,17.3064,VALID,116,VALID,0.939453,
2014-02-11, 03:04:05,VALID,915.153,VALID,0,VALID,85.1612,VALID,0,VALID,17.2882,VALID,116,VALID,0.963281,
2014-02-11, 03:05:05,VALID,915.153,VALID,0,VALID,85.3441,VALID,0,VALID,17.2492,VALID,116,VALID,1.08984,
2014-02-11, 03:06:05,VALID,915.125,VALID,0,VALID,85.7863,VALID,0,VALID,17.17,VALID,116,VALID,0.936328,
2014-02-11, 03:07:05,VALID,915.079,VALID,0,VALID,86.4495,VALID,0,VALID,17.0933,VALID,117,VALID,1.25039,
2014-02-11, 03:08:05,VALID,915.106,VALID,0,VALID,87.0213,VALID,0,VALID,17.0154,VALID,118,VALID,1.25352,
2014-02-11, 03:09:05,VALID,915.06,VALID,0,VALID,87.5244,VALID,0,VALID,16.9569,VALID,117,VALID,0.817578,
2014-02-11, 03:10:05,VALID,915.056,VALID,0,VALID,87.6388,VALID,0,VALID,16.8387,VALID,120,VALID,1.03828,
2014-02-11, 03:11:05,VALID,915.064,VALID,0,VALID,87.5397,VALID,0,VALID,16.8582,VALID,128,VALID,1.27891,
2014-02-11, 03:12:05,VALID,915.062,VALID,0,VALID,87.3491,VALID,0,VALID,16.9179,VALID,129,VALID,1.01875,
2014-02-11, 03:13:05,VALID,915.032,VALID,0,VALID,86.9298,VALID,0,VALID,16.9362,VALID,129,VALID,1.20469,
2014-02-11, 03:14:05,VALID,915.02,VALID,0,VALID,86.7164,VALID,0.107441,VALID,16.9946,VALID,129,VALID,1.05352,
2014-02-11, 03:15:05,VALID,915.051,VALID,0,VALID,86.8536,VALID,0,VALID,16.9751,VALID,129,VALID,0.942578,
2014-02-11, 03:16:05,VALID,915.008,VALID,0,VALID,86.8917,VALID,0,VALID,16.9362,VALID,129,VALID,0.766016,
2014-02-11, 03:17:05,VALID,915.01,VALID,0,VALID,86.8383,VALID,0,VALID,16.8569,VALID,129,VALID,0.979688,
2014-02-11, 03:18:05,VALID,915.022,VALID,0,VALID,87.067,VALID,0,VALID,16.879,VALID,129,VALID,1.00078,
2014-02-11, 03:19:05,VALID,915.067,VALID,0,VALID,85.954,VALID,0,VALID,16.9349,VALID,129,VALID,1.08164,
2014-02-11, 03:20:05,VALID,915.024,VALID,0,VALID,85.4204,VALID,0,VALID,17.092,VALID,129,VALID,1.04922,
2014-02-11, 03:21:05,VALID,915.022,VALID,0,VALID,84.841,VALID,0,VALID,17.131,VALID,129,VALID,1.03125,
2014-02-11, 03:22:05,VALID,915.045,VALID,0,VALID,84.1549,VALID,0,VALID,17.1323,VALID,127,VALID,1.33516,
2014-02-11, 03:23:05,VALID,915.038,VALID,0,VALID,81.8907,VALID,0,VALID,17.17,VALID,119,VALID,1.46836,
2014-02-11, 03:24:05,VALID,915.035,VALID,0,VALID,80.8158,VALID,0,VALID,17.3649,VALID,117,VALID,1.43867,
2014-02-11, 03:25:05,VALID,915.023,VALID,0,VALID,80.6634,VALID,0,VALID,17.4428,VALID,117,VALID,1.26836,
2014-02-11, 03:26:05,VALID,915.054,VALID,0,VALID,80.2593,VALID,0,VALID,17.461,VALID,124,VALID,1.36406,
2014-02-11, 03:27:05,VALID,915.066,VALID,0,VALID,81.1131,VALID,0,VALID,17.5208,VALID,128,VALID,0.829687,
2014-02-11, 03:28:05,VALID,915.035,VALID,0,VALID,80.8921,VALID,0,VALID,17.5013,VALID,128,VALID,1.00508,
2014-02-11, 03:29:05,VALID,915.1,VALID,0,VALID,80.4575,VALID,0,VALID,17.5208,VALID,128,VALID,0.905469,
2014-02-11, 03:30:05,VALID,915.07,VALID,0,VALID,80.1221,VALID,0,VALID,17.5598,VALID,128,VALID,0.795313,
2014-02-11, 03:31:05,VALID,915.103,VALID,0,VALID,80.4728,VALID,0,VALID,17.5403,VALID,128,VALID,0.918359,
2014-02-11, 03:32:05,VALID,915.112,VALID,0,VALID,80.4118,VALID,0,VALID,17.5013,VALID,128,VALID,0.98125,
2014-02-11, 03:33:05,VALID,915.087,VALID,0,VALID,80.1602,VALID,0,VALID,17.5013,VALID,126,VALID,1.41836,
2014-02-11, 03:34:05,VALID,915.126,VALID,0,VALID,80.0992,VALID,0,VALID,17.5584,VALID,128,VALID,0.897656,
2014-02-11, 03:35:05,VALID,915.151,VALID,0,VALID,79.4665,VALID,0.107441,VALID,17.5,VALID,127,VALID,1.59609,
2014-02-11, 03:36:05,VALID,915.14,VALID,0,VALID,79.1158,VALID,0.107441,VALID,17.5389,VALID,127,VALID,1.41445,
2014-02-11, 03:37:05,VALID,915.128,VALID,0,VALID,79.2759,VALID,0,VALID,17.6404,VALID,127,VALID,1.25391,
2014-02-11, 03:38:05,VALID,915.111,VALID,0,VALID,79.0243,VALID,0,VALID,17.5987,VALID,127,VALID,1.09727,
2014-02-11, 03:39:05,VALID,915.072,VALID,0,VALID,79.3293,VALID,0.107441,VALID,17.5598,VALID,127,VALID,1.20234,
2014-02-11, 03:40:05,VALID,915.039,VALID,0,VALID,79.4894,VALID,0,VALID,17.5026,VALID,120,VALID,1.43711,
2014-02-11, 03:41:05,VALID,915.045,VALID,0,VALID,79.4207,VALID,0,VALID,17.4233,VALID,105,VALID,1.48047,
2014-02-11, 03:42:05,VALID,915.013,VALID,0,VALID,80.2365,VALID,0,VALID,17.3844,VALID,102,VALID,1.42227,
2014-02-11, 03:43:05,VALID,914.968,VALID,0,VALID,80.1145,VALID,0.107441,VALID,17.3259,VALID,111,VALID,1.11016,
2014-02-11, 03:44:05,VALID,914.992,VALID,0,VALID,80.1221,VALID,0,VALID,17.2856,VALID,113,VALID,1.15156,